Volver al catálogo

OPS 4682 DEB

ActivoPO
NORAD 55121·DEBRIS·🇺🇸 United States

Lanzado Apr 3, 1965 desde Vandenberg Space Force Base

Loading…

Próximos Pases (próximas 24 horas)

TLE

EnvejeciendoSource: Space-Track

Época: Sep 7, 2026, 13:34 UTC

1 55121U 65027HL  26250.56575769  .00000355  00000-0  11278-2 0  9993
2 55121  90.2471   8.4930 0039201 112.5634 247.9644 13.01332041464334

Sigue OPS 4682 DEB en tiempo real con AllMySat

Download on the App Store